Time,TemperatureF,DewpointF,PressureIn,WindDirection,WindDirectionDegrees,WindSpeedMPH,WindSpeedGustMPH,Humidity,HourlyPrecipIn,Conditions,Clouds,dailyrainin,SoftwareType,DateUTC
2013-02-20 00:01:00,31.0,20.0,30.20,NW,304,0.0,-999.0,63,-99.99,,,-99.99,,2013-02-20 06:01:00,
2013-02-20 00:11:00,31.0,20.0,30.20,NW,304,0.0,-999.0,63,-99.99,,,-99.99,,2013-02-20 06:11:00,
2013-02-20 00:21:00,30.0,19.0,30.21,NW,304,0.0,-999.0,64,-99.99,,,-99.99,,2013-02-20 06:21:00,
2013-02-20 00:32:00,30.0,19.0,30.20,NW,304,0.0,-999.0,63,-99.99,,,-99.99,,2013-02-20 06:32:00,
2013-02-20 00:42:00,30.0,19.0,30.20,NW,304,0.0,-999.0,63,-99.99,,,-99.99,,2013-02-20 06:42:00,
2013-02-20 00:51:00,30.0,19.0,30.19,NW,304,0.0,-999.0,62,-99.99,,,-99.99,,2013-02-20 06:51:00,
2013-02-20 01:01:00,30.0,18.0,30.19,NW,304,0.0,-999.0,60,-99.99,,,-99.99,,2013-02-20 07:01:00,
2013-02-20 01:11:00,30.0,18.0,30.19,NW,304,0.0,-999.0,60,-99.99,,,-99.99,,2013-02-20 07:11:00,
2013-02-20 01:21:00,30.0,18.0,30.19,NW,304,0.0,-999.0,60,-99.99,,,-99.99,,2013-02-20 07:21:00,
2013-02-20 01:31:00,31.0,18.0,30.20,NW,312,0.0,-999.0,58,-99.99,,,-99.99,,2013-02-20 07:31:00,
2013-02-20 01:41:00,31.0,18.0,30.20,NW,312,0.0,-999.0,58,-99.99,,,-99.99,,2013-02-20 07:41:00,
2013-02-20 01:51:00,30.0,17.0,30.20,NE,56,1.0,-999.0,58,-99.99,,,-99.99,,2013-02-20 07:51:00,
2013-02-20 02:05:00,30.0,17.0,30.21,NE,56,0.0,-999.0,57,-99.99,,,-99.99,,2013-02-20 08:05:00,
2013-02-20 02:11:00,30.0,17.0,30.21,NE,56,0.0,-999.0,57,-99.99,,,-99.99,,2013-02-20 08:11:00,
2013-02-20 02:21:00,30.0,17.0,30.21,NE,56,0.0,-999.0,58,-99.99,,,-99.99,,2013-02-20 08:21:00,
2013-02-20 02:31:00,30.0,17.0,30.19,NE,56,1.0,-999.0,59,-99.99,,,-99.99,,2013-02-20 08:31:00,
2013-02-20 02:41:00,30.0,17.0,30.19,NE,56,1.0,-999.0,59,-99.99,,,-99.99,,2013-02-20 08:41:00,
2013-02-20 02:52:00,30.0,18.0,30.19,ENE,57,1.0,-999.0,60,-99.99,,,-99.99,,2013-02-20 08:52:00,
2013-02-20 03:01:00,30.0,17.0,30.19,ENE,59,1.0,-999.0,59,-99.99,,,-99.99,,2013-02-20 09:01:00,
2013-02-20 03:11:00,30.0,17.0,30.19,ENE,59,1.0,-999.0,59,-99.99,,,-99.99,,2013-02-20 09:11:00,
2013-02-20 03:21:00,30.0,17.0,30.18,East,82,1.0,-999.0,59,-99.99,,,-99.99,,2013-02-20 09:21:00,
2013-02-20 03:31:00,30.0,17.0,30.18,East,82,1.0,-999.0,59,-99.99,,,-99.99,,2013-02-20 09:31:00,
2013-02-20 03:42:00,30.0,17.0,30.18,East,82,1.0,-999.0,59,-99.99,,,-99.99,,2013-02-20 09:42:00,
2013-02-20 03:51:00,30.0,17.0,30.16,East,81,2.0,-999.0,59,-99.99,,,-99.99,,2013-02-20 09:51:00,
2013-02-20 04:01:00,30.0,17.0,30.17,East,81,1.0,-999.0,58,-99.99,,,-99.99,,2013-02-20 10:01:00,
2013-02-20 04:12:00,30.0,17.0,30.17,East,81,1.0,-999.0,58,-99.99,,,-99.99,,2013-02-20 10:12:00,
2013-02-20 04:22:00,30.0,17.0,30.18,East,81,1.0,-999.0,58,-99.99,,,-99.99,,2013-02-20 10:22:00,
2013-02-20 04:32:00,30.0,17.0,30.18,East,81,1.0,-999.0,59,-99.99,,,-99.99,,2013-02-20 10:32:00,
2013-02-20 04:41:00,30.0,17.0,30.18,East,81,1.0,-999.0,59,-99.99,,,-99.99,,2013-02-20 10:41:00,
2013-02-20 04:51:00,30.0,17.0,30.18,East,81,1.0,-999.0,58,-99.99,,,-99.99,,2013-02-20 10:51:00,
2013-02-20 05:02:00,30.0,16.0,30.17,East,80,2.0,-999.0,56,-99.99,,,-99.99,,2013-02-20 11:02:00,
2013-02-20 05:11:00,30.0,16.0,30.18,NE,56,2.0,-999.0,55,-99.99,,,-99.99,,2013-02-20 11:11:00,
2013-02-20 05:21:00,30.0,16.0,30.18,NE,56,2.0,-999.0,55,-99.99,,,-99.99,,2013-02-20 11:21:00,
2013-02-20 05:32:00,30.0,16.0,30.18,ENE,66,2.0,-999.0,55,-99.99,,,-99.99,,2013-02-20 11:32:00,
2013-02-20 05:41:00,30.0,16.0,30.18,ENE,66,2.0,-999.0,55,-99.99,,,-99.99,,2013-02-20 11:41:00,
2013-02-20 05:52:00,30.0,16.0,30.18,ENE,66,2.0,-999.0,55,-99.99,,,-99.99,,2013-02-20 11:52:00,
2013-02-20 06:02:00,30.0,15.0,30.18,ESE,117,2.0,-999.0,54,-99.99,,,-99.99,,2013-02-20 12:02:00,
2013-02-20 06:12:00,30.0,15.0,30.18,ESE,117,2.0,-999.0,54,-99.99,,,-99.99,,2013-02-20 12:12:00,
2013-02-20 06:21:00,30.0,14.0,30.19,ESE,113,2.0,-999.0,51,-99.99,,,-99.99,,2013-02-20 12:21:00,
2013-02-20 06:32:00,31.0,15.0,30.19,ESE,103,1.0,-999.0,50,-99.99,,,-99.99,,2013-02-20 12:32:00,
2013-02-20 06:42:00,31.0,15.0,30.19,ESE,103,1.0,-999.0,50,-99.99,,,-99.99,,2013-02-20 12:42:00,
2013-02-20 06:52:00,31.0,15.0,30.19,East,85,2.0,-999.0,50,-99.99,,,-99.99,,2013-02-20 12:52:00,
2013-02-20 07:01:00,31.0,15.0,30.19,East,85,2.0,-999.0,50,-99.99,,,-99.99,,2013-02-20 13:01:00,
2013-02-20 07:11:00,31.0,15.0,30.19,East,85,2.0,-999.0,50,-99.99,,,-99.99,,2013-02-20 13:11:00,
2013-02-20 07:22:00,31.0,16.0,30.18,ESE,102,2.0,-999.0,54,-99.99,,,-99.99,,2013-02-20 13:22:00,
2013-02-20 07:32:00,31.0,17.0,30.19,ESE,123,1.0,-999.0,55,-99.99,,,-99.99,,2013-02-20 13:32:00,
2013-02-20 07:42:00,31.0,17.0,30.19,ESE,123,1.0,-999.0,55,-99.99,,,-99.99,,2013-02-20 13:42:00,
2013-02-20 07:51:00,32.0,17.0,30.20,ESE,114,2.0,-999.0,54,-99.99,,,-99.99,,2013-02-20 13:51:00,
2013-02-20 08:01:00,32.0,18.0,30.19,East,95,2.0,-999.0,56,-99.99,,,-99.99,,2013-02-20 14:01:00,
2013-02-20 08:11:00,32.0,18.0,30.19,East,95,2.0,-999.0,56,-99.99,,,-99.99,,2013-02-20 14:11:00,
2013-02-20 08:21:00,31.0,17.0,30.20,East,83,2.0,-999.0,56,-99.99,,,-99.99,,2013-02-20 14:21:00,
2013-02-20 08:32:00,31.0,17.0,30.21,East,82,1.0,-999.0,55,-99.99,,,-99.99,,2013-02-20 14:32:00,
2013-02-20 08:42:00,31.0,17.0,30.21,East,82,1.0,-999.0,55,-99.99,,,-99.99,,2013-02-20 14:42:00,
2013-02-20 08:52:00,31.0,16.0,30.21,East,88,1.0,-999.0,54,-99.99,,,-99.99,,2013-02-20 14:52:00,
2013-02-20 09:01:00,32.0,17.0,30.21,East,94,1.0,-999.0,53,-99.99,,,-99.99,,2013-02-20 15:01:00,
2013-02-20 09:11:00,32.0,17.0,30.21,East,94,1.0,-999.0,53,-99.99,,,-99.99,,2013-02-20 15:11:00,
2013-02-20 09:22:00,32.0,16.0,30.20,East,80,1.0,-999.0,52,-99.99,,,-99.99,,2013-02-20 15:22:00,
2013-02-20 09:32:00,32.0,16.0,30.20,East,87,2.0,-999.0,52,-99.99,,,-99.99,,2013-02-20 15:32:00,
2013-02-20 09:42:00,32.0,16.0,30.20,East,87,2.0,-999.0,52,-99.99,,,-99.99,,2013-02-20 15:42:00,
2013-02-20 09:52:00,32.0,16.0,30.19,East,87,1.0,-999.0,52,-99.99,,,-99.99,,2013-02-20 15:52:00,
2013-02-20 10:01:00,32.0,15.0,30.18,SE,133,1.0,-999.0,50,-99.99,,,-99.99,,2013-02-20 16:01:00,
2013-02-20 10:11:00,32.0,15.0,30.18,SE,133,1.0,-999.0,50,-99.99,,,-99.99,,2013-02-20 16:11:00,
2013-02-20 10:21:00,33.0,16.0,30.19,SE,142,2.0,-999.0,49,-99.99,,,-99.99,,2013-02-20 16:21:00,
2013-02-20 10:32:00,33.0,16.0,30.19,SE,142,2.0,-999.0,49,-99.99,,,-99.99,,2013-02-20 16:32:00,
2013-02-20 10:41:00,33.0,16.0,30.19,SE,142,2.0,-999.0,49,-99.99,,,-99.99,,2013-02-20 16:41:00,
2013-02-20 10:52:00,32.0,22.0,30.19,SSE,162,2.0,-999.0,65,-99.99,,,-99.99,,2013-02-20 16:52:00,
2013-02-20 11:01:00,30.0,25.0,30.21,SE,140,2.0,-999.0,80,-99.99,,,-99.99,,2013-02-20 17:01:00,
2013-02-20 11:11:00,29.0,25.0,30.21,SE,142,1.0,-999.0,86,-99.99,,,-99.99,,2013-02-20 17:11:00,
2013-02-20 11:21:00,29.0,25.0,30.21,SE,142,1.0,-999.0,86,-99.99,,,-99.99,,2013-02-20 17:21:00,
2013-02-20 11:32:00,29.0,26.0,30.22,East,92,1.0,-999.0,89,-99.99,,,-99.99,,2013-02-20 17:32:00,
2013-02-20 11:42:00,29.0,26.0,30.22,East,92,1.0,-999.0,89,-99.99,,,-99.99,,2013-02-20 17:42:00,
2013-02-20 11:52:00,29.0,26.0,30.20,ENE,67,3.0,-999.0,90,-99.99,,,-99.99,,2013-02-20 17:52:00,
2013-02-20 12:02:00,29.0,26.0,30.18,ENE,64,3.0,-999.0,90,-99.99,,,-99.99,,2013-02-20 18:02:00,
2013-02-20 12:11:00,29.0,26.0,30.18,ENE,64,3.0,-999.0,90,-99.99,,,-99.99,,2013-02-20 18:11:00,
2013-02-20 12:21:00,29.0,27.0,30.16,ESE,109,4.0,-999.0,91,-99.99,,,-99.99,,2013-02-20 18:21:00,
2013-02-20 12:32:00,29.0,27.0,30.16,ENE,78,4.0,-999.0,91,-99.99,,,-99.99,,2013-02-20 18:32:00,
2013-02-20 12:42:00,29.0,27.0,30.16,ENE,78,4.0,-999.0,91,-99.99,,,-99.99,,2013-02-20 18:42:00,
2013-02-20 12:52:00,30.0,27.0,30.16,East,83,4.0,-999.0,90,-99.99,,,-99.99,,2013-02-20 18:52:00,
2013-02-20 13:01:00,30.0,27.0,30.15,ENE,57,3.0,-999.0,89,-99.99,,,-99.99,,2013-02-20 19:01:00,
2013-02-20 13:11:00,30.0,27.0,30.15,ENE,57,3.0,-999.0,89,-99.99,,,-99.99,,2013-02-20 19:11:00,
2013-02-20 13:21:00,31.0,28.0,30.13,ENE,72,4.0,-999.0,89,-99.99,,,-99.99,,2013-02-20 19:21:00,
2013-02-20 13:31:00,32.0,29.0,30.11,ENE,74,5.0,-999.0,88,-99.99,,,-99.99,,2013-02-20 19:31:00,
2013-02-20 13:41:00,32.0,29.0,30.11,ENE,74,5.0,-999.0,88,-99.99,,,-99.99,,2013-02-20 19:41:00,
2013-02-20 13:51:00,32.0,29.0,30.10,ENE,71,4.0,-999.0,87,-99.99,,,-99.99,,2013-02-20 19:51:00,
2013-02-20 14:01:00,33.0,30.0,30.10,ENE,63,4.0,-999.0,87,-99.99,,,-99.99,,2013-02-20 20:01:00,
2013-02-20 14:11:00,33.0,30.0,30.09,ESE,114,3.0,-999.0,87,-99.99,,,-99.99,,2013-02-20 20:11:00,
2013-02-20 14:21:00,33.0,30.0,30.09,ESE,114,3.0,-999.0,87,-99.99,,,-99.99,,2013-02-20 20:21:00,
2013-02-20 14:31:00,33.0,29.0,30.08,East,82,4.0,-999.0,86,-99.99,,,-99.99,,2013-02-20 20:31:00,
2013-02-20 14:41:00,34.0,30.0,30.08,East,101,4.0,-999.0,86,-99.99,,,-99.99,,2013-02-20 20:41:00,
2013-02-20 14:51:00,34.0,30.0,30.08,East,101,4.0,-999.0,86,-99.99,,,-99.99,,2013-02-20 20:51:00,
2013-02-20 15:01:00,34.0,30.0,30.08,East,92,2.0,-999.0,86,-99.99,,,-99.99,,2013-02-20 21:01:00,
2013-02-20 15:11:00,34.0,30.0,30.08,East,92,2.0,-999.0,86,-99.99,,,-99.99,,2013-02-20 21:11:00,
2013-02-20 15:21:00,34.0,30.0,30.06,East,96,3.0,-999.0,85,-99.99,,,-99.99,,2013-02-20 21:21:00,
2013-02-20 15:31:00,35.0,31.0,30.07,ENE,78,2.0,-999.0,86,-99.99,,,-99.99,,2013-02-20 21:31:00,
2013-02-20 15:41:00,35.0,31.0,30.07,ENE,78,2.0,-999.0,86,-99.99,,,-99.99,,2013-02-20 21:41:00,
2013-02-20 15:51:00,34.0,30.0,30.07,East,95,3.0,-999.0,86,-99.99,,,-99.99,,2013-02-20 21:51:00,
2013-02-20 16:01:00,34.0,30.0,30.07,ENE,63,4.0,-999.0,85,-99.99,,,-99.99,,2013-02-20 22:01:00,
2013-02-20 16:11:00,34.0,30.0,30.07,ENE,63,4.0,-999.0,85,-99.99,,,-99.99,,2013-02-20 22:11:00,
2013-02-20 16:21:00,34.0,30.0,30.06,East,88,4.0,-999.0,86,-99.99,,,-99.99,,2013-02-20 22:21:00,
2013-02-20 16:31:00,34.0,30.0,30.06,East,84,4.0,-999.0,85,-99.99,,,-99.99,,2013-02-20 22:31:00,
2013-02-20 16:42:00,34.0,30.0,30.06,East,84,4.0,-999.0,85,-99.99,,,-99.99,,2013-02-20 22:42:00,
2013-02-20 16:51:00,35.0,31.0,30.05,ENE,76,4.0,-999.0,86,-99.99,,,-99.99,,2013-02-20 22:51:00,
2013-02-20 17:01:00,34.0,30.0,30.05,East,96,5.0,-999.0,85,-99.99,,,-99.99,,2013-02-20 23:01:00,
2013-02-20 17:12:00,34.0,30.0,30.05,East,96,5.0,-999.0,85,-99.99,,,-99.99,,2013-02-20 23:12:00,
2013-02-20 17:22:00,35.0,31.0,30.04,SE,134,4.0,-999.0,85,-99.99,,,-99.99,,2013-02-20 23:22:00,
2013-02-20 17:32:00,34.0,30.0,30.03,East,92,5.0,-999.0,84,-99.99,,,-99.99,,2013-02-20 23:32:00,
2013-02-20 17:42:00,34.0,30.0,30.03,East,92,5.0,-999.0,84,-99.99,,,-99.99,,2013-02-20 23:42:00,
2013-02-20 17:52:00,33.0,29.0,30.02,SE,133,5.0,-999.0,84,-99.99,,,-99.99,,2013-02-20 23:52:00,
2013-02-20 18:03:00,33.0,28.0,30.02,ENE,70,6.0,-999.0,81,-99.99,,,-99.99,,2013-02-21 00:03:00,
2013-02-20 18:11:00,33.0,28.0,30.02,ENE,70,6.0,-999.0,81,-99.99,,,-99.99,,2013-02-21 00:11:00,
2013-02-20 18:21:00,33.0,27.0,30.02,ESE,114,4.0,-999.0,78,-99.99,,,-99.99,,2013-02-21 00:21:00,
2013-02-20 18:32:00,33.0,27.0,30.02,ENE,69,4.0,-999.0,77,-99.99,,,-99.99,,2013-02-21 00:32:00,
2013-02-20 18:42:00,33.0,27.0,30.02,ENE,69,4.0,-999.0,77,-99.99,,,-99.99,,2013-02-21 00:42:00,
2013-02-20 18:52:00,33.0,26.0,30.02,ESE,114,4.0,-999.0,74,-99.99,,,-99.99,,2013-02-21 00:52:00,
2013-02-20 19:01:00,33.0,25.0,30.02,ENE,67,5.0,-999.0,71,-99.99,,,-99.99,,2013-02-21 01:01:00,
2013-02-20 19:11:00,33.0,25.0,30.02,ENE,67,5.0,-999.0,71,-99.99,,,-99.99,,2013-02-21 01:11:00,
2013-02-20 19:21:00,33.0,25.0,30.01,East,98,5.0,-999.0,71,-99.99,,,-99.99,,2013-02-21 01:21:00,
2013-02-20 19:32:00,33.0,24.0,30.00,East,95,5.0,-999.0,70,-99.99,,,-99.99,,2013-02-21 01:32:00,
2013-02-20 19:41:00,33.0,24.0,30.00,East,95,5.0,-999.0,70,-99.99,,,-99.99,,2013-02-21 01:41:00,
2013-02-20 19:51:00,33.0,24.0,30.00,ESE,117,6.0,-999.0,69,-99.99,,,-99.99,,2013-02-21 01:51:00,
2013-02-20 20:01:00,33.0,24.0,30.01,East,79,3.0,-999.0,69,-99.99,,,-99.99,,2013-02-21 02:01:00,
2013-02-20 20:11:00,33.0,24.0,30.01,East,79,3.0,-999.0,69,-99.99,,,-99.99,,2013-02-21 02:11:00,
2013-02-20 20:21:00,33.0,24.0,30.01,ESE,103,4.0,-999.0,69,-99.99,,,-99.99,,2013-02-21 02:21:00,
2013-02-20 20:32:00,33.0,24.0,30.01,ESE,120,5.0,-999.0,68,-99.99,,,-99.99,,2013-02-21 02:32:00,
2013-02-20 20:42:00,33.0,24.0,30.01,ESE,120,5.0,-999.0,68,-99.99,,,-99.99,,2013-02-21 02:42:00,
2013-02-20 20:51:00,33.0,24.0,30.01,ESE,120,5.0,-999.0,68,-99.99,,,-99.99,,2013-02-21 02:51:00,
2013-02-20 21:01:00,33.0,23.0,30.01,ESE,119,4.0,-999.0,67,-99.99,,,-99.99,,2013-02-21 03:01:00,
2013-02-20 21:12:00,33.0,23.0,30.01,ESE,119,4.0,-999.0,67,-99.99,,,-99.99,,2013-02-21 03:12:00,
2013-02-20 21:21:00,33.0,25.0,30.01,East,94,5.0,-999.0,72,-99.99,,,-99.99,,2013-02-21 03:21:00,
2013-02-20 21:32:00,32.0,25.0,30.00,ESE,111,3.0,-999.0,75,-99.99,,,-99.99,,2013-02-21 03:32:00,
2013-02-20 21:41:00,32.0,25.0,30.00,ESE,111,3.0,-999.0,75,-99.99,,,-99.99,,2013-02-21 03:41:00,
2013-02-20 21:51:00,32.0,25.0,30.01,ESE,109,4.0,-999.0,75,-99.99,,,-99.99,,2013-02-21 03:51:00,
2013-02-20 22:01:00,32.0,26.0,30.00,ENE,77,4.0,-999.0,77,-99.99,,,-99.99,,2013-02-21 04:01:00,
2013-02-20 22:11:00,32.0,26.0,30.00,ENE,77,4.0,-999.0,77,-99.99,,,-99.99,,2013-02-21 04:11:00,
2013-02-20 22:21:00,32.0,26.0,30.00,ESE,111,5.0,-999.0,78,-99.99,,,-99.99,,2013-02-21 04:21:00,
2013-02-20 22:32:00,32.0,26.0,30.01,ESE,121,3.0,-999.0,79,-99.99,,,-99.99,,2013-02-21 04:32:00,
2013-02-20 22:42:00,32.0,26.0,30.01,ESE,121,3.0,-999.0,79,-99.99,,,-99.99,,2013-02-21 04:42:00,
2013-02-20 22:51:00,32.0,26.0,30.01,East,88,4.0,-999.0,79,-99.99,,,-99.99,,2013-02-21 04:51:00,
2013-02-20 23:02:00,32.0,26.0,29.99,East,101,6.0,-999.0,79,-99.99,,,-99.99,,2013-02-21 05:02:00,
2013-02-20 23:12:00,32.0,26.0,29.99,East,101,6.0,-999.0,79,-99.99,,,-99.99,,2013-02-21 05:12:00,
2013-02-20 23:22:00,31.0,26.0,29.99,East,84,5.0,-999.0,80,-99.99,,,-99.99,,2013-02-21 05:22:00,
2013-02-20 23:34:00,31.0,25.0,29.99,SE,141,5.0,-999.0,79,-99.99,,,-99.99,,2013-02-21 05:34:00,
2013-02-20 23:43:00,31.0,25.0,29.99,SE,141,5.0,-999.0,79,-99.99,,,-99.99,,2013-02-21 05:43:00,
2013-02-20 23:52:00,31.0,26.0,29.98,ESE,110,5.0,-999.0,80,-99.99,,,-99.99,,2013-02-21 05:52:00,